H1 CPF 2 NER 2022 10 23 9 296 01 glonass140 H2 1903001 9140 44299 2022 10 23 0 0 0 2022 10 26 23 45 0 900 1 1 0 0 0 1 H9 10 0 59875 0.00000 0 16227608.567 -2422949.109 19565434.871 10 0 59875 900.00000 0 18348376.151 -1550058.292 17688994.664 10 0 59875 1800.00000 0 20291033.543 -920846.135 15470010.643 10 0 59875 2700.00000 0 21995328.254 -517430.859 12951388.117 10 0 59875 3600.00000 0 23407633.297 -311042.140 10181842.982 10 0 59875 4500.00000 0 24483095.561 -263465.466 7214971.547 10 0 59875 5400.00000 0 25187439.287 -328888.345 4108224.443 10 0 59875 6300.00000 0 25498349.157 -456071.041 921803.383 10 0 59875 7200.00000 0 25406374.527 -590750.664 -2282498.605 10 0 59875 8100.00000 0 24915316.038 -678177.313 -5442491.513 10 0 59875 9000.00000 0 24042077.228 -665674.989 -8496794.319 10 0 59875 9900.00000 0 22815986.106 -505118.604 -11386028.980 10 0 59875 10800.00000 0 21277613.886 -155221.412 -14053978.955 10 0 59875 11700.00000 0 19477139.293 416465.101 -16448689.241 10 0 59875 12600.00000 0 17472326.146 1231925.037 -18523485.786 10 0 59875 13500.00000 0 15326198.336 2301496.206 -20237893.808 10 0 59875 14400.00000 0 13104509.226 3623184.577 -21558436.423 10 0 59875 15300.00000 0 10873111.358 5182506.074 -22459297.273 10 0 59875 16200.00000 0 8695336.656 6952864.532 -22922833.612 10 0 59875 17100.00000 0 6629496.916 8896451.896 -22939929.243 10 0 59875 18000.00000 0 4726609.487 10965634.429 -22510179.780 10 0 59875 18900.00000 0 3028443.450 13104768.060 -21641906.159 10 0 59875 19800.00000 0 1565968.097 15252367.594 -20351995.650 10 0 59875 20700.00000 0 358268.540 17343539.147 -18665573.169 10 0 59875 21600.00000 0 -588026.686 19312573.884 -16615509.109 10 0 59875 22500.00000 0 -1278782.892 21095593.949 -14241773.318 10 0 59875 23400.00000 0 -1731861.058 22633139.011 -11590648.132 10 0 59875 24300.00000 0 -1976106.854 23872584.276 -8713816.343 10 0 59875 25200.00000 0 -2049871.352 24770287.912 -5667342.665 10 0 59875 26100.00000 0 -1999127.949 25293377.301 -2510569.640 10 0 59875 27000.00000 0 -1875267.207 25421099.079 695049.345 10 0 59875 27900.00000 0 -1732664.890 25145676.607 3887156.025 10 0 59875 28800.00000 0 -1626127.875 24472639.575 7003707.521 10 0 59875 29700.00000 0 -1608327.447 23420613.055 9984186.267 10 0 59875 30600.00000 0 -1727329.583 22020576.123 12770775.544 10 0 59875 31500.00000 0 -2024327.136 20314622.603 15309477.499 10 0 59875 32400.00000 0 -2531669.818 18354277.103 17551152.313 10 0 59875 33300.00000 0 -3271274.857 16198437.788 19452459.090 10 0 59875 34200.00000 0 -4253484.788 13911032.460 20976681.310 10 0 59875 35100.00000 0 -5476419.912 11558485.742 22094422.307 10 0 59875 36000.00000 0 -6925852.237 9207102.341 22784158.863 10 0 59875 36900.00000 0 -8575606.030 6920474.274 23032643.718 10 0 59875 37800.00000 0 -10388468.465 4757018.298 22835150.599 10 0 59875 38700.00000 0 -12317573.020 2767743.992 22195558.080 10 0 59875 39600.00000 0 -14308198.892 994343.274 21126271.284 10 0 59875 40500.00000 0 -16299912.810 -532321.279 19647983.135 10 0 59875 41400.00000 0 -18228965.607 -1793268.300 17789279.445 10 0 59875 42300.00000 0 -20030845.272 -2781947.347 15586094.799 10 0 59875 43200.00000 0 -21642881.632 -3504264.760 13081028.683 10 0 59875 44100.00000 0 -23006795.312 -3978085.309 10322533.804 10 0 59875 45000.00000 0 -24071085.458 -4232230.807 7363991.036 10 0 59875 45900.00000 0 -24793156.883 -4305017.770 4262687.589 10 0 59875 46800.00000 0 -25141097.622 -4242395.382 1078717.077 10 0 59875 47700.00000 0 -25095031.899 -4095761.895 -2126177.975 10 0 59875 48600.00000 0 -24647990.856 -3919551.341 -5289799.284 10 0 59875 49500.00000 0 -23806263.241 -3768692.414 -8350698.734 10 0 59875 50400.00000 0 -22589209.875 -3696047.152 -11249373.455 10 0 59875 51300.00000 0 -21028548.118 -3749938.268 -13929426.573 10 0 59875 52200.00000 0 -19167134.876 -3971870.673 -16338670.554 10 0 59875 53100.00000 0 -17057297.870 -4394544.771 -18430150.966 10 0 59875 54000.00000 0 -14758784.037 -5040247.095 -20163070.112 10 0 59875 54900.00000 0 -12336410.141 -5919688.067 -21503591.834 10 0 59875 55800.00000 0 -9857513.493 -7031337.840 -22425511.086 10 0 59875 56700.00000 0 -7389309.117 -8361290.180 -22910774.611 10 0 59875 57600.00000 0 -4996263.768 -9883661.997 -22949841.927 10 0 59875 58500.00000 0 -2737596.701 -11561513.312 -22541879.009 10 0 59875 59400.00000 0 -665011.703 -13348250.330 -21694780.347 10 0 59875 60300.00000 0 1179244.806 -15189453.612 -20425018.493 10 0 59875 61200.00000 0 2763918.447 -17025055.014 -18757323.681 10 0 59875 62100.00000 0 4069810.558 -18791772.076 -16724199.606 10 0 59875 63000.00000 0 5090327.054 -20425697.317 -14365284.739 10 0 59875 63900.00000 0 5831490.528 -21864933.016 -11726572.015 10 0 59875 64800.00000 0 6311416.643 -23052160.018 -8859502.545 10 0 59875 65700.00000 0 6559278.718 -23937031.796 -5819951.847 10 0 59875 66600.00000 0 6613806.217 -24478292.375 -2667129.408 10 0 59875 67500.00000 0 6521382.773 -24645528.661 537585.827 10 0 59875 68400.00000 0 6333826.328 -24420483.366 3731850.148 10 0 59875 69300.00000 0 6105947.213 -23797873.650 6853575.314 10 0 59875 70200.00000 0 5892989.212 -22785681.734 9842139.650 10 0 59875 71100.00000 0 5748063.081 -21404906.248 12639565.899 10 0 59875 72000.00000 0 5719681.789 -19688785.867 15191642.664 10 0 59875 72900.00000 0 5849501.891 -17681528.885 17448967.967 10 0 59875 73800.00000 0 6170366.162 -15436602.771 19367895.426 10 0 59875 74700.00000 0 6704729.492 -13014655.806 20911365.758 10 0 59875 75600.00000 0 7463533.605 -10481157.568 22049608.943 10 0 59875 76500.00000 0 8445577.230 -7903856.112 22760705.019 10 0 59875 77400.00000 0 9637407.624 -5350156.702 23030994.173 10 0 59875 78300.00000 0 11013737.819 -2884529.552 22855329.581 10 0 59875 79200.00000 0 12538372.341 -566052.388 22237169.200 10 0 59875 80100.00000 0 14165603.342 1553812.134 21188505.367 10 0 59875 81000.00000 0 15842019.837 3433113.986 19729633.794 10 0 59875 81900.00000 0 17508655.888 5040911.494 17888766.119 10 0 59875 82800.00000 0 19103389.480 6358304.679 15701492.831 10 0 59875 83700.00000 0 20563493.421 7378964.630 13210105.914 10 0 59875 84600.00000 0 21828233.038 8109137.819 10462793.037 10 0 59875 85500.00000 0 22841403.004 8567125.720 7512717.616 10 0 59876 0.00000 0 23553697.704 8782261.788 4417001.529 10 0 59876 900.00000 0 23924816.259 8793428.770 1235627.373 10 0 59876 1800.00000 0 23925212.640 8647178.246 -1969715.028 10 0 59876 2700.00000 0 23537417.830 8395531.755 -5136821.665 10 0 59876 3600.00000 0 22756876.207 8093555.801 -8204179.855 10 0 59876 4500.00000 0 21592259.860 7796813.305 -11112164.354 10 0 59876 5400.00000 0 20065245.849 7558799.498 -13804200.246 10 0 59876 6300.00000 0 18209763.896 7428471.273 -16227869.561 10 0 59876 7200.00000 0 16070744.438 7447975.367 -18335939.364 10 0 59876 8100.00000 0 13702417.988 7650672.617 -20087290.694 10 0 59876 9000.00000 0 11166235.766 8059543.243 -21447729.559 10 0 59876 9900.00000 0 8528497.753 8686042.075 -22390663.455 10 0 59876 10800.00000 0 5857786.682 9529453.719 -22897629.599 10 0 59876 11700.00000 0 3222314.788 10576776.491 -22958663.961 10 0 59876 12600.00000 0 687294.093 11803141.501 -22572503.286 10 0 59876 13500.00000 0 -1687560.040 13172750.475 -21746615.648 10 0 59876 14400.00000 0 -3850287.848 14640293.799 -20497058.482 10 0 59876 15300.00000 0 -5758612.198 16152789.626 -18848166.491 10 0 59876 16200.00000 0 -7381453.478 17651766.796 -16832075.345 10 0 59876 17100.00000 0 -8699969.490 19075699.490 -14488090.393 10 0 59876 18000.00000 0 -9708077.627 20362590.512 -11861913.009 10 0 59876 18900.00000 0 -10412438.750 21452593.625 -9004740.137 10 0 59876 19800.00000 0 -10831905.150 22290563.615 -5972255.335 10 0 59876 20700.00000 0 -10996457.749 22828425.705 -2823532.069 10 0 59876 21600.00000 0 -10945679.651 23027263.834 380128.245 10 0 59876 22500.00000 0 -10726832.676 22859039.361 3576399.612 10 0 59876 23400.00000 0 -10392620.335 22307867.729 6703151.580 10 0 59876 24300.00000 0 -9998733.738 21370799.670 9699661.452 10 0 59876 25200.00000 0 -9601285.665 20058074.660 12507794.398 10 0 59876 26100.00000 0 -9254242.293 18392836.814 15073128.257 10 0 59876 27000.00000 0 -9006961.510 16410326.028 17346001.437 10 0 59876 27900.00000 0 -8901941.672 14156578.965 19282464.335 10 0 59876 28800.00000 0 -8972875.183 11686694.792 20845116.843 10 0 59876 29700.00000 0 -9243088.061 9062738.113 22003817.156 10 0 59876 30600.00000 0 -9724430.169 6351366.096 22736249.733 10 0 59876 31500.00000 0 -10416661.821 3621277.716 23028342.912 10 0 59876 32400.00000 0 -11307361.824 940589.688 22874529.538 10 0 59876 33300.00000 0 -12372360.537 -1625753.732 22277846.654 10 0 59876 34200.00000 0 -13576679.892 -4018431.533 21249872.975 10 0 59876 35100.00000 0 -14875941.663 -6185957.801 19810505.634 10 0 59876 36000.00000 0 -16218186.018 -8086564.892 17987580.204 10 0 59876 36900.00000 0 -17546025.505 -9689681.493 15816340.716 10 0 59876 37800.00000 0 -18799045.729 -10976945.660 13338768.886 10 0 59876 38700.00000 0 -19916353.530 -11942711.822 10602784.265 10 0 59876 39600.00000 0 -20839167.013 -12594031.272 7661329.496 10 0 59876 40500.00000 0 -21513339.592 -12950107.380 4571357.119 10 0 59876 41400.00000 0 -21891712.437 -13041248.423 1392736.362 10 0 59876 42300.00000 0 -21936196.303 -12907361.828 -1812899.646 10 0 59876 43200.00000 0 -21619494.533 -12596052.911 -4983344.506 10 0 59876 44100.00000 0 -20926393.605 -12160408.004 -8057024.178 10 0 59876 45000.00000 0 -19854565.355 -11656555.303 -10974194.060 10 0 59876 45900.00000 0 -18414845.316 -11141106.543 -13678103.993 10 0 59876 46800.00000 0 -16630973.452 -10668587.868 -16116108.078 10 0 59876 47700.00000 0 -14538806.227 -10288969.064 -18240697.027 10 0 59876 48600.00000 0 -12185031.150 -10045396.419 -20010432.324 10 0 59876 49500.00000 0 -9625436.006 -9972226.068 -21390763.334 10 0 59876 50400.00000 0 -6922803.918 -10093442.115 -22354710.708 10 0 59876 51300.00000 0 -4144521.176 -10421527.643 -22883402.155 10 0 59876 52200.00000 0 -1359997.075 -10956837.586 -22966449.513 10 0 59876 53100.00000 0 1361996.875 -11687501.155 -22602159.166 10 0 59876 54000.00000 0 3955957.525 -12589858.997 -21797571.172 10 0 59876 54900.00000 0 6362140.743 -13629417.491 -20568325.844 10 0 59876 55800.00000 0 8528808.097 -14762280.411 -18938360.034 10 0 59876 56700.00000 0 10414135.876 -15936997.764 -16939438.805 10 0 59876 57600.00000 0 11987706.942 -17096753.604 -14610531.583 10 0 59876 58500.00000 0 13231523.528 -18181799.963 -11997045.216 10 0 59876 59400.00000 0 14140499.536 -19132033.393 -9149929.380 10 0 59876 60300.00000 0 14722413.099 -19889604.403 -6124672.488 10 0 59876 61200.00000 0 14997323.092 -20401448.589 -2980208.764 10 0 59876 62100.00000 0 14996476.294 -20621631.729 222241.091 10 0 59876 63000.00000 0 14760753.479 -20513409.137 3420371.870 10 0 59876 63900.00000 0 14338722.263 -20050912.017 6552013.793 10 0 59876 64800.00000 0 13784380.981 -19220389.641 9556345.751 10 0 59876 65700.00000 0 13154690.669 -18020955.339 12375077.628 10 0 59876 66600.00000 0 12507000.612 -16464805.406 14953578.403 10 0 59876 67500.00000 0 11896476.876 -14576902.410 17241928.372 10 0 59876 68400.00000 0 11373642.397 -12394136.755 19195875.784 10 0 59876 69300.00000 0 10982131.902 -9964002.078 20777680.350 10 0 59876 70200.00000 0 10756755.326 -7342839.900 21956828.705 10 0 59876 71100.00000 0 10721950.021 -4593726.374 22710609.541 10 0 59876 72000.00000 0 10890685.574 -1784088.374 23024538.786 10 0 59876 72900.00000 0 11263866.063 1016853.281 22892628.057 10 0 59876 73800.00000 0 11830254.001 3740709.004 22317492.274 10 0 59876 74700.00000 0 12566918.678 6322506.947 21310295.078 10 0 59876 75600.00000 0 13440190.151 8703135.717 19890533.358 10 0 59876 76500.00000 0 14407079.391 10831544.013 18085664.791 10 0 59876 77400.00000 0 15417105.939 12666607.730 15930584.989 10 0 59876 78300.00000 0 16414457.562 14178588.590 13466963.325 10 0 59876 79200.00000 0 17340392.574 15350124.855 10742449.045 10 0 59876 80100.00000 0 18135785.090 16176713.638 7809761.755 10 0 59876 81000.00000 0 18743707.218 16666665.132 4725682.591 10 0 59876 81900.00000 0 19111940.124 16840530.806 1549964.452 10 0 59876 82800.00000 0 19195308.369 16730029.372 -1655818.371 10 0 59876 83700.00000 0 18957738.790 16376515.354 -4829459.478 10 0 59876 84600.00000 0 18373956.202 15829054.351 -7909325.764 10 0 59876 85500.00000 0 17430743.074 15142185.784 -10835555.408 10 0 59877 0.00000 0 16127708.472 14373467.404 -13551224.726 10 0 59877 900.00000 0 14477531.024 13580904.815 -16003462.116 10 0 59877 1800.00000 0 12505665.398 12820375.864 -18144483.197 10 0 59877 2700.00000 0 10249520.095 12143157.796 -19932531.216 10 0 59877 3600.00000 0 7757140.703 11593663.319 -21332700.038 10 0 59877 4500.00000 0 5085451.406 11207481.629 -22317624.443 10 0 59877 5400.00000 0 2298126.991 11009808.140 -22868023.425 10 0 59877 6300.00000 0 -536816.830 11014330.143 -22973085.289 10 0 59877 7200.00000 0 -3349614.783 11222616.367 -22630686.379 10 0 59877 8100.00000 0 -6071417.360 11624036.999 -21847438.724 10 0 59877 9000.00000 0 -8636919.101 12196218.121 -20638565.105 10 0 59877 9900.00000 0 -10986840.048 12906011.747 -19027603.672 10 0 59877 10800.00000 0 -13070156.797 13710940.524 -17045947.593 10 0 59877 11700.00000 0 -14845990.051 14561055.798 -14732228.674 10 0 59877 12600.00000 0 -16285069.908 15401129.955 -12131557.190 10 0 59877 13500.00000 0 -17370718.235 16173089.502 -9294633.208 10 0 59877 14400.00000 0 -18099307.915 16818584.964 -6276747.452 10 0 59877 15300.00000 0 -18480181.064 17281587.809 -3136692.212 10 0 59877 16200.00000 0 -18535031.501 17510903.466 64395.316 10 0 59877 17100.00000 0 -18296779.510 17462493.283 3264233.548 10 0 59877 18000.00000 0 -17807988.497 17101506.610 6400616.242 10 0 59877 18900.00000 0 -17118892.490 16403936.872 9412626.735 10 0 59877 19800.00000 0 -16285119.580 15357831.729 12241822.434 10 0 59877 20700.00000 0 -15365208.869 13964006.620 14833366.172 10 0 59877 21600.00000 0 -14418026.599 12236232.122 17137082.693 10 0 59877 22500.00000 0 -13500190.718 10200887.708 19108420.440 10 0 59877 23400.00000 0 -12663612.109 7896096.826 20709300.997 10 0 59877 24300.00000 0 -11953255.096 5370379.566 21908841.153 10 0 59877 25200.00000 0 -11405210.182 2680878.855 22683935.145 10 0 59877 26100.00000 0 -11045158.448 -108766.542 23019687.366 10 0 59877 27000.00000 0 -10887290.592 -2930814.935 22909688.595 10 0 59877 27900.00000 0 -10933724.581 -5715982.706 22356131.537 10 0 59877 28800.00000 0 -11174445.287 -8396068.882 21369764.160 10 0 59877 29700.00000 0 -11587768.078 -10906536.462 19969682.013 10 0 59877 30600.00000 0 -12141306.787 -13188945.492 18182963.311 10 0 59877 31500.00000 0 -12793405.847 -15193138.742 16044153.233 10 0 59877 32400.00000 0 -13494977.209 -16879090.944 13594606.414 10 0 59877 33300.00000 0 -14191665.896 -18218345.944 10881699.099 10 0 59877 34200.00000 0 -14826254.184 -19194982.743 7957924.934 10 0 59877 35100.00000 0 -15341204.180 -19806070.664 4879890.570 10 0 59877 36000.00000 0 -15681232.477 -20061594.735 1707229.419 10 0 59877 36900.00000 0 -15795808.619 -19983854.196 -1498546.255 10 0 59877 37800.00000 0 -15641471.855 -19606359.006 -4675233.214 10 0 59877 38700.00000 0 -15183867.742 -18972270.253 -7761142.400 10 0 59877 39600.00000 0 -14399417.456 -18132449.578 -10696297.812 10 0 59877 40500.00000 0 -13276547.769 -17143199.447 -13423605.598 10 0 59877 41400.00000 0 -11816427.844 -16063789.294 -15889970.188 10 0 59877 42300.00000 0 -10033179.614 -14953871.856 -18047335.067 10 0 59877 43200.00000 0 -7953550.607 -13870898.893 -19853627.342 10 0 59877 44100.00000 0 -5616060.631 -12867645.666 -21273587.037 10 0 59877 45000.00000 0 -3069656.148 -11989949.178 -22279464.216 10 0 59877 45900.00000 0 -371926.816 -11274756.155 -22851569.782 10 0 59877 46800.00000 0 2413042.611 -10748563.798 -22978668.556 10 0 59877 47700.00000 0 5217096.293 -10426319.660 -22658206.391 10 0 59877 48600.00000 0 7970606.667 -10310827.588 -21896366.337 10 0 59877 49500.00000 0 10605141.040 -10392685.135 -20707952.284 10 0 59877 50400.00000 0 13056084.092 -10650755.197 -19116101.931 10 0 59877 51300.00000 0 15265106.738 -11053151.828 -17151834.463 10 0 59877 52200.00000 0 17182378.126 -11558698.120 -14853441.630 10 0 59877 53100.00000 0 18768428.189 -12118793.800 -12265734.371 10 0 59877 54000.00000 0 19995583.097 -12679612.547 -9439160.082 10 0 59877 54900.00000 0 20848914.040 -13184534.849 -6428808.453 10 0 59877 55800.00000 0 21326660.470 -13576712.154 -3293326.304 10 0 59877 56700.00000 0 21440111.505 -13801652.449 -93763.677 10 0 59877 57600.00000 0 21212952.203 -13809716.682 3107625.102 10 0 59877 58500.00000 0 20680104.254 -13558419.484 6248600.815 10 0 59877 59400.00000 0 19886112.012 -13014436.278 9268154.464 10 0 59877 60300.00000 0 18883143.814 -12155231.722 12107693.831 10 0 59877 61200.00000 0 17728694.492 -10970240.808 14712178.010 10 0 59877 62100.00000 0 16483087.050 -9461553.153 17031178.112 10 0 59877 63000.00000 0 15206879.238 -7644072.008 19019844.198 10 0 59877 63900.00000 0 13958284.143 -5545141.723 20639760.659 10 0 59877 64800.00000 0 12790712.519 -3203659.352 21859674.886 10 0 59877 65700.00000 0 11750538.861 -668707.332 22656086.675 10 0 59877 66600.00000 0 10875183.420 2002236.231 23013688.463 10 0 59877 67500.00000 0 10191588.793 4745436.220 22925649.389 10 0 59877 68400.00000 0 9715153.200 7493300.577 22393738.774 10 0 59877 69300.00000 0 9449163.603 10176943.802 21428287.422 10 0 59877 70200.00000 0 9384751.249 12728809.438 20047987.770 10 0 59877 71100.00000 0 9501370.783 15085244.734 18279536.559 10 0 59877 72000.00000 0 9767782.613 17188922.442 16157126.339 10 0 59877 72900.00000 0 10143497.526 18991010.853 13721794.652 10 0 59877 73800.00000 0 10580623.443 20453003.204 11020642.250 10 0 59877 74700.00000 0 11026037.482 21548131.102 8105934.212 10 0 59877 75600.00000 0 11423792.663 22262303.593 5034100.039 10 0 59877 76500.00000 0 11717658.619 22594532.718 1864650.947 10 0 59877 77400.00000 0 11853689.519 22556827.476 -1340965.501 10 0 59877 78300.00000 0 11782710.894 22173560.186 -4520551.838 10 0 59877 79200.00000 0 11462619.895 21480331.200 -7612365.517 10 0 59877 80100.00000 0 10860400.902 20522379.002 -10556318.607 10 0 59877 81000.00000 0 9953769.986 19352602.011 -13295148.880 10 0 59877 81900.00000 0 8732376.962 18029274.825 -15775539.038 10 0 59877 82800.00000 0 7198512.253 16613554.859 -17949161.678 10 0 59877 83700.00000 0 5367286.465 15166884.271 -19773629.036 10 0 59877 84600.00000 0 3266272.729 13748396.730 -21213328.355 10 0 59877 85500.00000 0 934624.592 12412438.511 -22240125.857 10 0 59878 0.00000 0 -1578295.370 11206308.807 -22833924.986 10 0 59878 900.00000 0 -4214721.978 10168314.171 -22983067.634 10 0 59878 1800.00000 0 -6910651.172 9326221.036 -22684569.243 10 0 59878 2700.00000 0 -9598276.123 8696169.609 -21944183.699 10 0 59878 3600.00000 0 -12208591.131 8282096.687 -20776295.405 10 0 59878 4500.00000 0 -14674056.040 8075690.984 -19203640.585 10 0 59878 5400.00000 0 -16931209.560 8056882.612 -17256862.977 10 0 59878 6300.00000 0 -18923122.129 8194845.428 -14973912.437 10 0 59878 7200.00000 0 -20601585.382 8449468.985 -12399298.402 10 0 59878 8100.00000 0 -21928946.552 8773236.695 -9583213.195 10 0 59878 9000.00000 0 -22879511.099 9113429.310 -6580542.908 10 0 59878 9900.00000 0 -23440455.219 9414559.002 -3449786.223 10 0 59878 10800.00000 0 -23612210.918 9620929.391 -251903.316 10 0 59878 11700.00000 0 -23408308.800 9679211.731 2950881.493 10 0 59878 12600.00000 0 -22854686.881 9540926.955 6096298.764 10 0 59878 13500.00000 0 -21988496.410 9164727.668 9123249.921 10 0 59878 14400.00000 0 -20856456.854 8518383.055 11972995.822 10 0 59878 15300.00000 0 -19512831.024 7580382.671 14590294.447 10 0 59878 16200.00000 0 -18017106.882 6341091.612 16924465.750 10 0 59878 17100.00000 0 -16431484.317 4803408.655 18930363.659 10 0 59878 18000.00000 0 -14818272.690 2982900.086 20569237.329 10 0 59878 18900.00000 0 -13237307.951 907403.773 21809466.361 10 0 59878 19800.00000 0 -11743496.535 -1383880.023 22627157.293 10 0 59878 20700.00000 0 -10384587.474 -3841773.449 23006591.373 10 0 59878 21600.00000 0 -9199264.098 -6408924.638 22940516.398 10 0 59878 22500.00000 0 -8215633.178 -9021956.184 22430278.170 10 0 59878 23400.00000 0 -7450172.874 -11613870.717 21485789.749 10 0 59878 24300.00000 0 -6907181.805 -14116615.477 20125339.468 10 0 59878 25200.00000 0 -6578751.052 -16463701.317 18375241.204 10 0 59878 26100.00000 0 -6445259.491 -18592769.141 16269333.121 10 0 59878 27000.00000 0 -6476371.339 -20447998.832 13848333.590 10 0 59878 27900.00000 0 -6632494.182 -21982261.857 11159065.530 10 0 59878 28800.00000 0 -6866636.603 -23158928.770 8253562.909 10 0 59878 29700.00000 0 -7126587.882 -23953256.799 5188075.386 10 0 59878 30600.00000 0 -7357328.484 -24353299.630 2021989.197 10 0 59878 31500.00000 0 -7503570.178 -24360300.990 -1183315.637 10 0 59878 32400.00000 0 -7512318.684 -23988554.960 -4365650.278 10 0 59878 33300.00000 0 -7335350.381 -23264738.062 -7463221.554 10 0 59878 34200.00000 0 -6931497.761 -22226740.271 -10415832.465 10 0 59878 35100.00000 0 -6268645.892 -20922043.240 -13166055.207 10 0 59878 36000.00000 0 -5325354.000 -19405713.140 -15660353.463 10 0 59878 36900.00000 0 -4092031.798 -17738091.983 -17850131.477 10 0 59878 37800.00000 0 -2571618.768 -15982284.154 -19692688.894 10 0 59878 38700.00000 0 -779735.427 -14201543.651 -21152062.110 10 0 59878 39600.00000 0 1255702.085 -12456671.952 -22199735.032 10 0 59878 40500.00000 0 3495390.114 -10803536.018 -22815204.779 10 0 59878 41400.00000 0 5890032.210 -9290810.962 -22986390.690 10 0 59878 42300.00000 0 8382163.576 -7958042.523 -22709878.055 10 0 59878 43200.00000 0 10908330.105 -6834110.899 -21990991.274 10 0 59878 44100.00000 0 13401531.672 -5936160.561 -20843694.510 10 0 59878 45000.00000 0 15793827.765 -5269040.890 -19290321.371 10 0 59878 45900.00000 0 18018996.546 -4825280.693 -17361138.606 10 0 59878 46800.00000 0 20015135.855 -4585596.918 -15093752.225 10 0 59878 47700.00000 0 21727096.841 -4519915.080 -12532367.805 10 0 59878 48600.00000 0 23108647.955 -4588856.915 -9726919.811 10 0 59878 49500.00000 0 24124278.414 -4745630.830 -6732087.591 10 0 59878 50400.00000 0 24750565.505 -4938243.449 -3606218.224 10 0 59878 51300.00000 0 24977048.846 -5111936.881 -410178.354 10 0 59878 52200.00000 0 24806575.765 -5211746.809 2793841.447 10 0 59878 53100.00000 0 24255104.544 -5185071.632 5943545.188 10 0 59878 54000.00000 0 23350975.408 -4984142.687 8977748.162 10 0 59878 54900.00000 0 22133681.620 -4568290.273 11837567.453 10 0 59878 55800.00000 0 20652194.015 -3905909.269 14467562.666 10 0 59878 56700.00000 0 18962910.810 -2976041.331 16816804.891 10 0 59878 57600.00000 0 17127319.757 -1769507.152 18839853.765 10 0 59878 58500.00000 0 15209471.164 -289541.506 20497624.589 10 0 59878 59400.00000 0 13273367.489 1448095.305 21758130.117 10 0 59878 60300.00000 0 11380377.940 3415534.186 22597084.163 10 0 59878 61200.00000 0 9586784.868 5573724.849 22998356.893 10 0 59878 62100.00000 0 7941562.652 7873836.153 22954274.488 10 0 59878 63000.00000 0 6484479.766 10259071.810 22465758.541 10 0 59878 63900.00000 0 5244601.228 12666827.125 21542303.300 10 0 59878 64800.00000 0 4239251.924 15031098.746 20201791.555 10 0 59878 65700.00000 0 3473482.446 17285049.036 18470152.546 10 0 59878 66600.00000 0 2940058.531 19363620.176 16380867.983 10 0 59878 67500.00000 0 2619973.696 21206090.980 13974334.744 10 0 59878 68400.00000 0 2483463.213 22758471.364 11297095.382 10 0 59878 69300.00000 0 2491476.922 23975635.657 8400950.055 10 0 59878 70200.00000 0 2597549.251 24823106.297 5341965.748 10 0 59878 71100.00000 0 2749988.117 25278413.518 2179400.813 10 0 59878 72000.00000 0 2894290.905 25331973.731 -1025435.209 10 0 59878 72900.00000 0 2975685.743 24987449.154 -4210365.003 10 0 59878 73800.00000 0 2941690.702 24261572.641 -7313547.550 10 0 59878 74700.00000 0 2744582.349 23183443.939 -10274679.374 10 0 59878 75600.00000 0 2343668.426 21793325.820 -13036169.455 10 0 59878 76500.00000 0 1707267.345 20140989.582 -15544264.545 10 0 59878 77400.00000 0 814309.231 18283678.529 -17750102.352 10 0 59878 78300.00000 0 -344511.046 16283774.282 -19610671.481 10 0 59878 79200.00000 0 -1766079.646 14206263.435 -21089658.793 10 0 59878 80100.00000 0 -3434738.126 12116110.671 -22158166.945 10 0 59878 81000.00000 0 -5322693.903 10075648.502 -22795287.521 10 0 59878 81900.00000 0 -7390951.638 8142093.143 -22988517.957 10 0 59878 82800.00000 0 -9590728.172 6365290.880 -22734013.542 10 0 59878 83700.00000 0 -11865293.084 4785789.503 -22036669.021 10 0 59878 84600.00000 0 -14152158.777 3433315.649 -20910027.722 10 0 59878 85500.00000 0 -16385528.791 2325721.827 -19376019.574 99